Hourly Weather Bolshie Kurguzi

Today, 19 June, Saturday

Time Temperature Precipitation Wind Pressure Humidity
00:00 +13°C° 0 mm 2 mps 758 mmHg 70%
01:00 +13°C° 0 mm 2 mps 758 mmHg 72%
02:00 +13°C° 0 mm 2 mps 758 mmHg 75%
03:00 +13°C° 0 mm 2 mps 758 mmHg 76%
04:00 +13°C° 0 mm 3 mps 757 mmHg 76%
05:00 +14°C° 0 mm 3 mps 757 mmHg 75%
06:00 +15°C° 0 mm 4 mps 757 mmHg 75%
07:00 +18°C° 0 mm 4 mps 757 mmHg 70%
08:00 +20°C° 0 mm 5 mps 757 mmHg 66%
09:00 +22°C° 0 mm 6 mps 756 mmHg 60%
10:00 +23°C° 0 mm 6 mps 756 mmHg 58%
11:00 +24°C° 0 mm 6 mps 756 mmHg 56%
12:00 +27°C° 0 mm 7 mps 755 mmHg 53%
13:00 +27°C° 0 mm 7 mps 755 mmHg 53%
14:00 +27°C° 0 mm 7 mps 755 mmHg 54%
15:00 +28°C° 0 mm 7 mps 754 mmHg 54%
16:00 +27°C° 0 mm 7 mps 754 mmHg 58%
17:00 +26°C° 0 mm 6 mps 754 mmHg 62%
18:00 +26°C° 0 mm 6 mps 753 mmHg 66%
19:00 +23°C° 0 mm 5 mps 753 mmHg 71%
20:00 +22°C° 0 mm 5 mps 753 mmHg 76%
21:00 +21°C° 0 mm 4 mps 754 mmHg 80%
22:00 +20°C° 0 mm 4 mps 754 mmHg 83%
23:00 +19°C° 0 mm 4 mps 754 mmHg 86%

Tomorrow, 20 June, Sunday

Time Temperature Precipitation Wind Pressure Humidity
00:00 +18°C° 0 mm 3 mps 754 mmHg 89%
01:00 +18°C° 0 mm 3 mps 754 mmHg 91%
02:00 +18°C° 0 mm 3 mps 754 mmHg 92%
03:00 +17°C° 0 mm 3 mps 754 mmHg 93%
04:00 +19°C° 0 mm 3 mps 754 mmHg 88%
05:00 +20°C° 0 mm 3 mps 754 mmHg 83%
06:00 +21°C° 0 mm 3 mps 755 mmHg 78%
07:00 +24°C° 0 mm 3 mps 755 mmHg 72%
08:00 +25°C° 0 mm 3 mps 755 mmHg 65%
09:00 +27°C° 0 mm 3 mps 755 mmHg 58%
10:00 +28°C° 0 mm 3 mps 755 mmHg 54%
11:00 +29°C° 0 mm 3 mps 755 mmHg 50%
12:00 +30°C° 0 mm 3 mps 755 mmHg 46%
13:00 +31°C° 0 mm 3 mps 755 mmHg 45%
14:00 +31°C° 0 mm 3 mps 754 mmHg 44%
15:00 +31°C° 0 mm 3 mps 754 mmHg 43%
16:00 +30°C° 0 mm 2 mps 754 mmHg 50%
17:00 +29°C° 0 mm 2 mps 754 mmHg 57%
18:00 +28°C° 0 mm 2 mps 754 mmHg 64%
19:00 +27°C° 0 mm 2 mps 754 mmHg 69%
20:00 +26°C° 0 mm 1 mps 754 mmHg 74%
21:00 +24°C° 0 mm 1 mps 755 mmHg 79%
22:00 +24°C° 0.1 mm 1 mps 755 mmHg 81%
23:00 +23°C° 0.1 mm 1 mps 755 mmHg 82%

Day after tomorrow, 21 June, Monday

Time Temperature Precipitation Wind Pressure Humidity
00:00 +23°C° 0.1 mm 1 mps 755 mmHg 83%
01:00 +23°C° 0 mm 2 mps 755 mmHg 85%
02:00 +21°C° 0 mm 2 mps 755 mmHg 87%
03:00 +21°C° 0 mm 2 mps 755 mmHg 89%
04:00 +21°C° 0 mm 2 mps 755 mmHg 86%
05:00 +23°C° 0 mm 2 mps 755 mmHg 83%
06:00 +24°C° 0 mm 2 mps 755 mmHg 81%
07:00 +25°C° 0 mm 3 mps 755 mmHg 74%
08:00 +27°C° 0 mm 3 mps 755 mmHg 67%
09:00 +28°C° 0 mm 4 mps 755 mmHg 60%
10:00 +29°C° 0 mm 4 mps 755 mmHg 56%
11:00 +30°C° 0 mm 4 mps 755 mmHg 52%
12:00 +32°C° 0 mm 4 mps 755 mmHg 48%
13:00 +32°C° 0 mm 4 mps 755 mmHg 47%
14:00 +32°C° 0 mm 4 mps 755 mmHg 47%
15:00 +33°C° 0 mm 4 mps 754 mmHg 46%
16:00 +32°C° 0 mm 4 mps 754 mmHg 52%
17:00 +30°C° 0 mm 4 mps 754 mmHg 58%
18:00 +29°C° 0 mm 4 mps 754 mmHg 63%
19:00 +27°C° 0 mm 3 mps 754 mmHg 70%
20:00 +26°C° 0 mm 3 mps 754 mmHg 78%
21:00 +24°C° 0 mm 2 mps 754 mmHg 85%
22:00 +23°C° 0 mm 2 mps 754 mmHg 86%
23:00 +23°C° 0 mm 2 mps 754 mmHg 88%

22 June, Tuesday

Time Temperature Precipitation Wind Pressure Humidity
00:00 +21°C° 0 mm 2 mps 754 mmHg 90%
01:00 +21°C° 0 mm 2 mps 754 mmHg 91%
02:00 +21°C° 0 mm 2 mps 755 mmHg 91%
03:00 +20°C° 0 mm 2 mps 755 mmHg 92%
04:00 +21°C° 0 mm 2 mps 755 mmHg 87%
05:00 +23°C° 0 mm 2 mps 755 mmHg 82%
06:00 +24°C° 0 mm 2 mps 755 mmHg 77%
07:00 +26°C° 0 mm 3 mps 755 mmHg 69%
08:00 +28°C° 0 mm 3 mps 755 mmHg 62%
09:00 +29°C° 0 mm 3 mps 755 mmHg 55%
10:00 +30°C° 0 mm 3 mps 755 mmHg 51%
11:00 +31°C° 0 mm 3 mps 755 mmHg 47%
12:00 +33°C° 0 mm 3 mps 755 mmHg 43%
13:00 +33°C° 0 mm 3 mps 755 mmHg 44%
14:00 +33°C° 0 mm 4 mps 755 mmHg 45%
15:00 +33°C° 0 mm 4 mps 754 mmHg 45%
16:00 +32°C° 0 mm 4 mps 754 mmHg 51%
17:00 +30°C° 0 mm 3 mps 754 mmHg 57%
18:00 +29°C° 0 mm 3 mps 754 mmHg 64%
19:00 +28°C° 0 mm 3 mps 754 mmHg 68%
20:00 +26°C° 0 mm 3 mps 754 mmHg 72%
21:00 +25°C° 0 mm 2 mps 754 mmHg 76%
22:00 +24°C° 0 mm 2 mps 754 mmHg 79%
23:00 +23°C° 0 mm 1 mps 754 mmHg 82%

23 June, Wednesday

Time Temperature Precipitation Wind Pressure Humidity
00:00 +22°C° 0 mm 1 mps 754 mmHg 84%
01:00 +22°C° 0 mm 1 mps 754 mmHg 86%
02:00 +21°C° 0 mm 1 mps 754 mmHg 87%
03:00 +21°C° 0 mm 1 mps 754 mmHg 89%
04:00 +21°C° 0 mm 2 mps 754 mmHg 84%
05:00 +23°C° 0 mm 2 mps 754 mmHg 80%
06:00 +24°C° 0 mm 2 mps 754 mmHg 75%
07:00 +26°C° 0 mm 3 mps 754 mmHg 69%
08:00 +28°C° 0 mm 3 mps 754 mmHg 63%
09:00 +29°C° 0 mm 4 mps 754 mmHg 57%
10:00 +30°C° 0 mm 3 mps 754 mmHg 52%
11:00 +31°C° 0 mm 3 mps 754 mmHg 48%
12:00 +33°C° 0 mm 3 mps 754 mmHg 44%
13:00 +33°C° 0 mm 3 mps 754 mmHg 46%
14:00 +33°C° 0 mm 3 mps 754 mmHg 49%
15:00 +31°C° 0 mm 3 mps 753 mmHg 51%
16:00 +30°C° 0.3 mm 3 mps 753 mmHg 59%
17:00 +28°C° 0.3 mm 3 mps 753 mmHg 66%
18:00 +27°C° 0.3 mm 3 mps 753 mmHg 74%
19:00 +26°C° 0.2 mm 2 mps 753 mmHg 77%
20:00 +24°C° 0.2 mm 2 mps 753 mmHg 80%
21:00 +23°C° 0.2 mm 1 mps 753 mmHg 84%
22:00 +22°C° 0.9 mm 1 mps 753 mmHg 87%
23:00 +20°C° 0.9 mm 2 mps 754 mmHg 91%

24 June, Thursday

Time Temperature Precipitation Wind Pressure Humidity
00:00 +19°C° 0.9 mm 2 mps 754 mmHg 95%
01:00 +19°C° 0 mm 2 mps 754 mmHg 95%
02:00 +20°C° 0 mm 1 mps 754 mmHg 94%
03:00 +20°C° 0 mm 1 mps 753 mmHg 94%
04:00 +21°C° 0 mm 1 mps 754 mmHg 92%
05:00 +21°C° 0 mm 1 mps 754 mmHg 90%
06:00 +21°C° 0 mm 2 mps 754 mmHg 88%
07:00 +23°C° 0 mm 1 mps 754 mmHg 81%
08:00 +25°C° 0 mm 1 mps 754 mmHg 75%
09:00 +26°C° 0 mm 1 mps 754 mmHg 68%
10:00 +27°C° 0 mm 1 mps 754 mmHg 64%
11:00 +28°C° 0 mm 1 mps 754 mmHg 60%
12:00 +29°C° 0 mm 1 mps 754 mmHg 57%
13:00 +30°C° 0 mm 1 mps 754 mmHg 55%
14:00 +30°C° 0 mm 1 mps 754 mmHg 53%
15:00 +31°C° 0 mm 1 mps 754 mmHg 52%
16:00 +30°C° 0 mm 1 mps 753 mmHg 56%
17:00 +30°C° 0 mm 2 mps 753 mmHg 61%
18:00 +29°C° 0 mm 2 mps 753 mmHg 65%
19:00 +27°C° 0 mm 2 mps 753 mmHg 71%
20:00 +26°C° 0 mm 2 mps 753 mmHg 77%
21:00 +24°C° 0 mm 2 mps 753 mmHg 82%
22:00 +23°C° 0 mm 2 mps 753 mmHg 85%
23:00 +22°C° 0 mm 1 mps 753 mmHg 87%
Show more